Weather History for Palacios, TX

Change the Weather History Date:

Friday, April 6, 2012

  Actual Average Record
Temperature  
Mean Temperature 74 °F -  
Max Temperature 82 °F 74 °F 85 °F (1943)
Min Temperature 66 °F 55 °F 41 °F (1971)
Cooling Degree Days 9    
Growing Degree Days 24 (Base 50)    
Moisture  
Dew Point 68 °F    
Average Humidity 84    
Maximum Humidity 100    
Minimum Humidity 60    
Precipitation  
Precipitation 0.00 in - - ()
Sea Level Pressure  
Sea Level Pressure 29.92 in    
Wind  
Wind Speed 7 mph (East)    
Max Wind Speed 13 mph    
Max Gust Speed -    
Visibility 7 miles    
Events Fog    
Averages and records for this station are not official NWS values.
T = Trace of Precipitation, MM = Missing Value Source: NWS Daily Summary

Daily Weather History Graph

Daily Weather History Graph

Search for Another Location

Airport:

Trip Planner

Search our weather history database for the weather conditions in past years. The results will help you decide how hot, cold, wet, or windy it might be!

Date:

Astronomy

Apr. 06, 2012 Rise Set
Actual Time 7:08 AM CDT 7:46 PM CDT
Civil Twilight 6:44 AM CDT 8:10 PM CDT
Nautical Twilight 6:16 AM CDT 8:38 PM CDT
Astronomical Twilight 5:48 AM CDT 9:06 PM CDT
Moon 8:01 PM CDT (4/6) 6:44 AM CDT (4/6)
Length of Visible Light 13h 25m
Length of Day
12h 37m
Full, 100% of the Moon is Illuminated
Apr 6
Full
Apr 6
Full
Apr 13
Last Quarter
Apr 21
New
Apr 29
First Quarter

Hourly Weather History & Observations

Time (CDT) Temp. Heat Index Dew Point Humidity Pressure Visibility Wind Dir Wind Speed Gust Speed Precip Events Conditions
12:53 AM 72.0 °F - 71.1 °F 97% 29.88 in 3.0 mi ENE 3.5 mph - N/A   Clear
1:53 AM 72.0 °F - 70.0 °F 93% 29.88 in 4.0 mi ESE 4.6 mph - N/A   Clear
2:36 AM 71.6 °F - 71.6 °F 100% 29.87 in 1.8 mi SE 4.6 mph - N/A   Clear
2:51 AM 71.6 °F - 69.8 °F 94% 29.87 in 3.0 mi SE 5.8 mph - N/A   Clear
2:53 AM 71.1 °F - 70.0 °F 96% 29.87 in 3.0 mi SE 5.8 mph - N/A   Clear
3:45 AM 69.8 °F - 69.8 °F 100% 29.86 in 2.0 mi NE 5.8 mph - N/A   Clear
3:53 AM 70.0 °F - 69.1 °F 97% 29.86 in 2.5 mi NE 5.8 mph - N/A   Clear
4:09 AM 69.8 °F - 69.8 °F 100% 29.86 in 1.8 mi ENE 4.6 mph - N/A   Partly Cloudy
4:19 AM 69.8 °F - 69.8 °F 100% 29.86 in 1.0 mi ENE 4.6 mph - N/A   Mist
4:31 AM 69.8 °F - 68.0 °F 94% 29.86 in 0.5 mi NE 6.9 mph - N/A Fog Fog
4:50 AM 69.8 °F - 69.8 °F 100% 29.86 in 0.2 mi NNE 6.9 mph - N/A Fog Fog
4:53 AM 70.0 °F - 69.1 °F 97% 29.86 in 0.2 mi NNE 6.9 mph - N/A Fog Fog
5:19 AM 71.6 °F - 69.8 °F 94% 29.87 in 0.2 mi NE 4.6 mph - N/A Fog Fog
5:44 AM 69.8 °F - 69.8 °F 100% 29.87 in 2.5 mi ENE 6.9 mph - N/A   Overcast
5:48 AM 69.8 °F - 69.8 °F 100% 29.87 in 6.0 mi ENE 5.8 mph - N/A   Mostly Cloudy
5:53 AM 69.1 °F - 68.0 °F 96% 29.88 in 8.0 mi ENE 5.8 mph - N/A   Mostly Cloudy
6:01 AM 68.0 °F - 66.2 °F 94% 29.88 in 8.0 mi NE 5.8 mph - N/A   Scattered Clouds
6:53 AM 66.0 °F - 64.9 °F 96% 29.90 in 8.0 mi ENE 5.8 mph - N/A   Clear
8:53 AM 70.0 °F - 64.9 °F 84% 29.95 in 10.0 mi ENE 9.2 mph - N/A   Clear
9:53 AM 75.0 °F - 66.9 °F 76% 29.96 in 10.0 mi ENE 10.4 mph - N/A   Clear
11:53 AM 81.0 °F 83.0 °F 66.0 °F 60% 29.98 in 10.0 mi ESE 12.7 mph - N/A   Clear
12:53 PM 82.0 °F 84.5 °F 66.9 °F 60% 29.97 in 10.0 mi East 11.5 mph - N/A   Clear
1:53 PM 78.1 °F - 66.9 °F 68% 29.97 in 10.0 mi ESE 11.5 mph - N/A   Partly Cloudy
2:53 PM 79.0 °F - 66.9 °F 66% 29.96 in 10.0 mi ESE 10.4 mph - N/A   Mostly Cloudy
3:12 PM 80.6 °F 82.7 °F 66.2 °F 61% 29.95 in 10.0 mi East 12.7 mph - N/A   Scattered Clouds
3:53 PM 80.1 °F 82.7 °F 68.0 °F 67% 29.94 in 10.0 mi ESE 12.7 mph - N/A   Mostly Cloudy
4:03 PM 80.6 °F 83.2 °F 68.0 °F 65% 29.94 in 10.0 mi ESE 11.5 mph - N/A   Scattered Clouds
4:53 PM 80.1 °F 82.3 °F 66.9 °F 64% 29.94 in 10.0 mi ESE 11.5 mph - N/A   Scattered Clouds
5:53 PM 78.1 °F - 66.9 °F 68% 29.95 in 10.0 mi East 11.5 mph - N/A   Partly Cloudy
6:53 PM 75.9 °F - 66.9 °F 74% 29.95 in 10.0 mi East 11.5 mph - N/A   Scattered Clouds
7:01 PM 75.2 °F - 66.2 °F 73% 29.95 in 10.0 mi East 11.5 mph - N/A   Mostly Cloudy
7:17 PM 75.2 °F - 66.2 °F 73% 29.96 in 10.0 mi East 11.5 mph - N/A   Scattered Clouds
7:53 PM 73.9 °F - 66.0 °F 76% 29.96 in 10.0 mi East 9.2 mph - N/A   Clear
8:53 PM 72.0 °F - 66.9 °F 84% 29.97 in 10.0 mi East 8.1 mph - N/A   Clear
9:53 PM 72.0 °F - 66.9 °F 84% 30.00 in 10.0 mi ESE 8.1 mph - N/A   Partly Cloudy
10:53 PM 72.0 °F - 66.9 °F 84% 30.01 in 10.0 mi East 8.1 mph - N/A   Clear
11:53 PM 72.0 °F - 66.9 °F 84% 30.03 in 10.0 mi ESE 8.1 mph - N/A   Clear